Flag for U.S.A. Weather past 2 weeks in Osage City, Kansas, U.S.A.

Now
74 °F

Sunny.


Feels Like: 77 °F
Forecast: 45 / 76 °F
Wind: 18 mph from South

Location: Forbes Field


UV Index: 5 (Moderate)

Visibility: 10 mi


Pressure: 30.01 "Hg

Humidity: 35%

Dew point: 44 °F

Location of Osage CityLocation

Historic Weather in Osage City

°F

Osage City temperature yesterday

Maximum temperature yesterday: 69 °F (at 3:53 PM)
Minimum temperature yesterday: 30 °F (at 6:53 AM)
Average temperature yesterday: 51 °F

Past Weeks' High & Low Weather Summary

 TemperatureHumidityPressure
High81 °F (Apr 9, 4:53 PM)93% (Apr 13, 2:53 PM)30.33 "Hg (Apr 13, 2:53 PM)
Low25 °F (Apr 15, 5:53 AM)18% (Apr 9, 4:53 PM)29.37 "Hg (Apr 13, 1:53 PM)
Average53 °F55%29.97 "Hg
* Reported Apr 4 4:53 PM — Apr 19 4:53 PM, Osage City, Weather by CustomWeather, © 2014

Note: Actual official high and low records may vary slightly from our data, if they occured in-between our weather recording intervals... More about our weather records

Advertising

Historic Weather Conditions — Data for Previous 24 hours

 ConditionsComfort  
Time TempWeatherWind HumidityBarometerVisibility
4:53 PM
Apr 19
74 °FSunny.18 mph35%30.02 "Hg10 mi
3:53 PM77 °FSunny.20 mph30%30.03 "Hg10 mi
2:53 PM77 °FSunny.26 mph32%30.04 "Hg10 mi
1:53 PM76 °FSunny.21 mph32%30.07 "Hg10 mi
12:53 PM75 °FSunny.22 mph34%30.07 "Hg10 mi
11:53 AM73 °FSunny.20 mph37%30.09 "Hg10 mi
10:53 AM70 °FSunny.18 mph39%30.09 "Hg10 mi
9:53 AM66 °FSunny.12 mph45%30.11 "Hg10 mi
8:53 AM58 °FSunny.12 mph58%30.13 "Hg10 mi
7:53 AM53 °FSunny.8 mph66%30.12 "Hg9 mi
6:53 AM47 °FClear.7 mph77%30.11 "Hg10 mi
5:53 AM48 °FClear.5 mph74%30.10 "Hg10 mi
4:53 AM47 °FClear.7 mph77%30.10 "Hg10 mi
3:53 AM47 °FClear.5 mph77%30.11 "Hg10 mi
2:53 AM49 °FClear.6 mph74%30.12 "Hg10 mi
1:53 AM50 °FClear.6 mph71%30.13 "Hg10 mi
12:53 AM51 °FClear.6 mph71%30.14 "Hg10 mi
11:53 PM
Apr 18
53 °FClear.7 mph66%30.15 "Hg9 mi
10:53 PM55 °FClear.8 mph62%30.16 "Hg8 mi
9:53 PM55 °FClear.6 mph59%30.14 "Hg8 mi
8:53 PM55 °FSunny.7 mph57%30.14 "Hg7 mi
7:53 PM63 °FSunny.9 mph43%30.13 "Hg9 mi
6:53 PM67 °FSunny.15 mph36%30.13 "Hg10 mi
Weather by CustomWeather, © 2014

See weather overview